This demonstration page uses our WeatherBlox Daily Observations layout. Learn more.

Left ArrowRight Arrow

40.92945, -100.16068

Hourly Observations for March 13, 2021

Temp ( °F °C ) Dew Point ( °F °C ) Humidity (%) Winds ( mph kmh ) Pressure ( in mb ) Visibility ( mi km ) Precip ( " mm )
12:15 am 00:15 Cloudy 40 4.2 34 1.2 81 81 E 8 13 30.39 1029 10 16 N/A
12:35 am 00:35 Cloudy 40 4.7 33 0.5 74 74 E 10 17 30.37 1028 10 16 N/A
12:55 am 00:55 Cloudy 41 5 32 0.2 71 71 E 9 15 30.36 1028 10 16 N/A
1:15 am 01:15 Cloudy 41 5.1 32 0.1 70 70 E 9 15 30.36 1028 10 16 N/A
1:35 am 01:35 Cloudy 42 5.4 32 -0.1 68 68 ESE 14 22 30.35 1028 10 16 N/A
1:55 am 01:55 Cloudy 42 5.3 31 -0.5 67 67 E 14 22 30.36 1028 10 16 N/A
2:15 am 02:15 Cloudy 41 5.2 30 -0.9 65 65 E 12 19 30.36 1028 10 16 N/A
2:35 am 02:35 Cloudy 41 5 31 -0.3 69 69 E 13 20 30.37 1028 10 16 N/A
2:55 am 02:55 Cloudy 40 4.6 32 undefined 72 72 ESE 13 20 30.36 1028 10 16 N/A
3:15 am 03:15 Cloudy 40 4.3 33 0.4 76 76 ESE 13 20 30.36 1028 10 16 N/A
3:35 am 03:35 Cloudy 39 4 33 0.4 78 78 ESE 10 17 30.36 1028 10 16 N/A
3:55 am 03:55 Cloudy 39 4 32 undefined 75 75 E 14 22 30.33 1027 10 16 N/A
4:15 am 04:15 Cloudy 39 3.9 32 undefined 76 76 E 12 19 30.33 1027 10 16 N/A
4:37 am 04:37 Cloudy 39 4 30 -1 70 70 ESE 9 15 30.33 1027 10 16 N/A
4:58 am 04:58 Cloudy 39 4 32 undefined 75 75 ESE 13 20 30.33 1027 10 16 N/A
5:18 am 05:18 Cloudy 39 4 32 undefined 75 75 ESE 10 17 30.33 1027 10 16 N/A
5:38 am 05:38 Cloudy 39 4 32 undefined 75 75 E 10 17 30.33 1027 10 16 N/A
5:57 am 05:57 Cloudy with Light Rain 39 4 32 undefined 75 75 E 7 11 30.32 1027 10 16 N/A
6:17 am 06:17 Cloudy with Rain 39 4 34 1 81 81 ESE 7 11 30.33 1027 10 16 N/A
6:37 am 06:37 Cloudy with Light Rain 39 4 34 1 81 81 E 7 11 30.33 1027 10 16 N/A
6:58 am 06:58 Cloudy 37 3 34 1 87 87 E 12 19 30.34 1027 10 16 N/A
7:18 am 07:18 Cloudy 37 3 36 2 93 93 E 9 15 30.34 1027 7 11 N/A
7:37 am 07:37 Cloudy with Mist and Fog 37 3 36 2 93 93 E 12 19 30.33 1027 4 6 N/A
7:57 am 07:57 Cloudy with Mist and Fog 37 3 36 2 93 93 E 12 19 30.33 1027 2 3 N/A
8:37 am 08:37 Cloudy with Rain 37 3 36 2 93 93 E 7 11 30.35 1028 3 4 0.03 0.76
8:57 am 08:57 Cloudy with Light Rain 37 3 36 2 93 93 E 13 20 30.34 1027 2 3 0.11 2.79
9:17 am 09:17 Cloudy with Light Rain 37 3 36 2 93 93 E 9 15 30.34 1027 4 6 0.01 0.25
9:37 am 09:37 Cloudy with Light Rain 37 3 36 2 93 93 E 10 17 30.34 1027 7 11 0.02 0.51
9:58 am 09:58 Cloudy with Light Rain 37 3 37 3 100 100 ENE 9 15 30.32 1027 7 11 0.03 0.76
10:17 am 10:17 Cloudy with Drizzle 37 3 36 2 93 93 ENE 13 20 30.31 1026 10 16 N/A
10:38 am 10:38 Cloudy with Light Rain 39 4 37 3 93 93 E 10 17 30.30 1026 10 16 N/A
10:57 am 10:57 Cloudy with Light Rain 37 3 37 3 100 100 E 15 24 30.29 1026 5 8 0.02 0.51
11:17 am 11:17 Cloudy with Light Rain 39 4 37 3 93 93 E 13 20 30.30 1026 5 8 0.02 0.51
11:37 am 11:37 Cloudy with Light Rain 37 3 37 3 100 100 E 17 28 30.28 1025 5 8 0.04 1.02
11:59 am 11:59 Cloudy with Light Rain 37 3 37 3 100 100 ENE 14 22 30.27 1025 5 8 N/A
12:17 pm 12:17 Cloudy 37 3 37 3 100 100 ENE 15 24 30.26 1025 10 16 N/A
12:38 pm 12:38 Cloudy with Mist and Fog 39 4 37 3 93 93 E 16 26 30.25 1024 5 8 N/A
12:57 pm 12:57 Cloudy with Drizzle 39 4 37 3 93 93 E 13 20 30.24 1024 3 5 N/A
1:18 pm 13:18 Cloudy with Rain 39 4 37 3 93 93 E 14 22 30.23 1024 5 8 0.01 0.25
1:38 pm 13:38 Cloudy with Rain 39 4 39 4 100 100 E 12 19 30.23 1024 4 6 0.02 0.51
1:58 pm 13:58 Cloudy with Light Rain 41 5 39 4 93 93 ESE 12 19 30.23 1024 4 6 0.04 1.02
2:17 pm 14:17 Cloudy with Rain 41 5 39 4 93 93 ESE 9 15 30.22 1023 4 6 0.02 0.51
2:37 pm 14:37 Cloudy with Rain 41 5 39 4 93 93 ESE 7 11 30.21 1023 3 4 0.10 2.54
2:58 pm 14:58 Cloudy with Light Rain 41 5 39 4 93 93 E 8 13 30.21 1023 2 3 0.19 4.83
3:17 pm 15:17 Cloudy with Rain 43 6 41 5 93 93 NE 13 20 30.17 1022 4 6 0.06 1.52
3:39 pm 15:39 Cloudy with Rain 41 5 39 4 93 93 ENE 14 22 30.17 1022 4 6 0.14 3.56
3:57 pm 15:57 Cloudy with Rain 41 5 39 4 93 93 NE 15 24 30.17 1022 4 6 0.21 5.33
4:17 pm 16:17 Cloudy with Rain 41 5 39 4 93 93 NE 14 22 30.16 1021 4 6 0.08 2.03
4:37 pm 16:37 Cloudy with Rain 41 5 39 4 93 93 ENE 16 26 30.16 1021 3 5 0.18 4.57
4:57 pm 16:57 Cloudy with Rain 41 5 39 4 93 93 ENE 17 28 30.15 1021 4 6 0.27 6.86
5:17 pm 17:17 Cloudy with Nearby Thunderstorms 41 5 39 4 93 93 NE 17 28 30.15 1021 4 6 0.06 1.52
5:37 pm 17:37 Cloudy with Rain 39 4 39 4 100 100 NE 20 31 30.16 1021 4 6 0.15 3.81
5:58 pm 17:58 Cloudy 39 4 39 4 100 100 E 26 43 30.12 1020 1 2 0.23 5.84
6:18 pm 18:18 Cloudy with Nearby Thunderstorms 39 4 39 4 100 100 ENE 36 57 30.05 1018 2 3 0.08 2.03
6:57 pm 18:57 Cloudy with Light Rain 39 4 39 4 100 100 ENE 22 35 30.11 1020 4 6 0.17 4.32
7:17 pm 19:17 Cloudy with Light Rain 39 4 39 4 100 100 ENE 24 39 30.10 1019 5 8 0.02 0.51
7:38 pm 19:38 Cloudy with Thunderstorms 39 4 39 4 100 100 ENE 23 37 30.12 1020 4 6 0.11 2.79
7:58 pm 19:58 Cloudy 39 4 39 4 100 100 ENE 28 44 30.09 1019 2 3 0.23 5.84
8:18 pm 20:18 Cloudy with Nearby Thunderstorms 39 4 39 4 100 100 ESE 7 11 30.18 1022 4 6 0.10 2.54
8:37 pm 20:37 Cloudy with Light Rain 39 4 39 4 100 100 ENE 14 22 30.15 1021 4 6 0.23 5.84
8:57 pm 20:57 Cloudy with Light Rain 39 4 39 4 100 100 ENE 18 30 30.14 1021 5 8 0.29 7.37
9:17 pm 21:17 Cloudy with Rain 41 5 39 4 93 93 ENE 23 37 30.10 1019 4 6 0.07 1.78
9:37 pm 21:37 Cloudy with Light Rain 41 5 39 4 93 93 ENE 22 35 30.10 1019 5 8 0.09 2.29
9:58 pm 21:58 Cloudy 41 5 39 4 93 93 ENE 25 41 30.08 1019 7 11 0.09 2.29
10:17 pm 22:17 Cloudy with Light Rain 41 5 39 4 93 93 ENE 22 35 30.09 1019 4 6 0.01 0.25
10:37 pm 22:37 Cloudy with Mist and Fog 41 5 39 4 93 93 E 23 37 30.09 1019 5 8 0.01 0.25
10:58 pm 22:58 Windy with Snow Likely 41 5 39 4 93 93 E 21 33 30.09 1019 2 3 0.01 0.25
11:17 pm 23:17 Windy with Snow Likely 41 5 39 4 93 93 E 23 37 30.09 1019 3 4 0.01 0.25
11:39 pm 23:39 Cloudy with Light Rain 41 5 39 4 93 93 E 25 41 30.08 1019 7 11 0.03 0.76
11:59 pm 23:59 Cloudy with Light Rain 41 5 41 5 100 100 E 23 37 30.06 1018 4 6 0.04 1.02

Powered by AerisWeather